Weather History for Palmdale, CA

Change the Weather History Date:

Monday, September 3, 2012

  Actual Average Record
Temperature  
Mean Temperature 82 °F 78 °F  
Max Temperature 100 °F 95 °F 106 °F (1947)
Min Temperature 63 °F 61 °F 44 °F (1964)
Degree Days  
Heating Degree Days 0 0  
Month to date heating degree days 0 0  
Since 1 July heating degree days 0 0  
Cooling Degree Days 17 13  
Month to date cooling degree days 36 39  
Year to date cooling degree days 1790 1521  
Growing Degree Days 31 (Base 50)    
Moisture  
Dew Point 22 °F    
Average Humidity 17    
Maximum Humidity 28    
Minimum Humidity 5    
Precipitation  
Precipitation 0.00 in 0.00 in 0.42 in (1945)
Month to date precipitation 0.00 0.01  
Year to date precipitation 1.79 5.57  
Since 1 July precipitation T 0.25  
Snow  
Snow 0.00 in - 0.00 in (1973)
Month to date snowfall 0.0  
Since 1 July snowfall 0.0  
Since 1 September snowfall 0.0  
Snow Depth 0.00 in    
Sea Level Pressure  
Sea Level Pressure 29.93 in    
Wind  
Wind Speed 8 mph (WSW)    
Max Wind Speed 23 mph    
Max Gust Speed 28 mph    
Visibility 10 miles    
Events      
T = Trace of Precipitation, MM = Missing Value Source: NWS Daily Summary

Daily Weather History Graph

Daily Weather History Graph

Search for Another Location

Airport:

Trip Planner

Search our weather history database for the weather conditions in past years. The results will help you decide how hot, cold, wet, or windy it might be!

Date:

Astronomy

Sep. 03, 2012 Rise Set
Actual Time 6:27 AM PDT 7:15 PM PDT
Civil Twilight 6:01 AM PDT 7:40 PM PDT
Nautical Twilight 5:31 AM PDT 8:10 PM PDT
Astronomical Twilight 5:00 AM PDT 8:41 PM PDT
Moon 8:48 PM PDT (9/3) 9:29 AM PDT (9/3)
Length of Visible Light 13h 39m
Length of Day
12h 47m
Waning Gibbous, 90% of the Moon is Illuminated
Sep 3
Waning Gibbous
Sep 8
Last Quarter
Sep 15
New
Sep 22
First Quarter
Sep 29
Full

Hourly Weather History & Observations

Time (PDT) Temp. Dew Point Humidity Pressure Visibility Wind Dir Wind Speed Gust Speed Precip Events Conditions
12:53 AM 69.1 °F 21.0 °F 16% 29.92 in 10.0 mi SSW 6.9 mph - N/A   Clear
1:53 AM 69.1 °F 23.0 °F 18% 29.91 in 10.0 mi South 6.9 mph - N/A   Clear
2:53 AM 68.0 °F 25.0 °F 20% 29.91 in 10.0 mi South 5.8 mph - N/A   Clear
3:53 AM 64.0 °F 25.0 °F 23% 29.91 in 10.0 mi South 5.8 mph - N/A   Clear
4:53 AM 63.0 °F 26.1 °F 25% 29.91 in 10.0 mi Calm Calm - N/A   Clear
5:53 AM 64.0 °F 30.0 °F 28% 29.92 in 10.0 mi Calm Calm - N/A   Clear
6:53 AM 64.9 °F 24.1 °F 21% 29.95 in 10.0 mi South 4.6 mph - N/A   Clear
7:53 AM 72.0 °F 24.1 °F 17% 29.95 in 10.0 mi Calm Calm - N/A   Clear
8:53 AM 77.0 °F 26.1 °F 15% 29.97 in 10.0 mi NNW 4.6 mph - N/A   Clear
9:53 AM 81.0 °F 25.0 °F 13% 29.98 in 10.0 mi North 4.6 mph - N/A   Clear
10:53 AM 87.1 °F 21.9 °F 9% 29.96 in 10.0 mi ENE 3.5 mph - N/A   Clear
11:53 AM 91.9 °F 21.0 °F 8% 29.95 in 10.0 mi Calm Calm - N/A   Clear
12:53 PM 93.9 °F 17.1 °F 6% 29.94 in 10.0 mi Variable 4.6 mph - N/A   Clear
1:53 PM 95.0 °F 17.1 °F 6% 29.91 in 10.0 mi Calm Calm - N/A   Clear
2:53 PM 99.0 °F 17.1 °F 5% 29.88 in 10.0 mi WSW 16.1 mph - N/A   Clear
3:53 PM 98.1 °F 21.0 °F 6% 29.89 in 10.0 mi WSW 18.4 mph - N/A   Clear
4:53 PM 96.1 °F 24.1 °F 8% 29.88 in 10.0 mi West 19.6 mph - N/A   Clear
5:53 PM 91.9 °F 19.0 °F 7% 29.89 in 10.0 mi WSW 17.3 mph - N/A   Clear
6:53 PM 88.0 °F 25.0 °F 10% 29.89 in 10.0 mi WSW 16.1 mph - N/A   Clear
7:53 PM 86.0 °F 24.8 °F 11% 29.99 in 10.0 mi West 10.4 mph - N/A   Clear
8:53 PM 84.0 °F 19.9 °F 9% 29.93 in 10.0 mi WSW 10.4 mph - N/A   Clear
9:53 PM 84.9 °F 17.1 °F 8% 29.94 in 10.0 mi WSW 11.5 mph - N/A   Clear
10:53 PM 82.0 °F 17.1 °F 9% 29.95 in 10.0 mi WSW 10.4 mph - N/A   Clear
11:53 PM 81.0 °F 17.1 °F 9% 29.94 in 10.0 mi West 13.8 mph 18.4 mph N/A   Clear